GW7587 Weather Reports


time (UTC)temp
C
wind
direction
speed
KPH
gust
KPH
rain 1hr
cm
rain 24hr
cm
rain mn
cm
humidity
%
barometer
mb
20260906233101 21 250 9.7 22.5 0.00 0.00 0.00 37 1028.9
20260906224603 20 281 4.8 14.5 0.00 0.00 0.00 40 1029.0
20260906223100 20 292 4.8 19.3 0.00 0.00 0.00 40 1029.0
20260906221601 20 239 8.0 20.9 0.00 0.00 0.00 40 1029.2
20260906214602 20 293 8.0 16.1 0.00 0.00 0.00 37 1029.3
20260906213102 20 241 8.0 17.7 0.00 0.00 0.00 38 1029.4
20260906211605 21 243 8.0 20.9 0.00 0.00 0.00 37 1029.6
20260906204600 21 229 9.7 17.7 0.00 0.00 0.00 36 1029.7
20260906203100 23 184 6.4 25.7 0.00 0.00 0.00 31 1029.8
20260906201601 21 295 6.4 27.4 0.00 0.00 0.00 36 1030.0
20260906193102 21 202 9.7 22.5 0.00 0.00 0.00 36 1030.4
20260906191601 20 225 8.0 19.3 0.00 0.00 0.00 37 1030.6
20260906190100 21 177 4.8 19.3 0.00 0.00 0.00 35 1030.8
20260906184601 22 228 11.3 20.9 0.00 0.00 0.00 33 1030.9
20260906183100 21 260 8.0 29.0 0.00 0.00 0.00 32 1031.0
20260906181604 22 169 8.0 20.9 0.00 0.00 0.00 31 1031.3
20260906174601 21 110 8.0 17.7 0.00 0.00 0.00 31 1031.4
20260906173102 21 317 6.4 19.3 0.00 0.00 0.00 31 1031.7
20260906171600 21 177 9.7 20.9 0.00 0.00 0.00 32 1032.0
20260906170058 21 229 4.8 16.1 0.00 0.00 0.00 32 1031.8
20260906164558 19 240 6.4 14.5 0.00 0.00 0.00 35 1031.8
20260906161548 20 306 6.4 12.9 0.00 0.00 0.00 34 1031.8
20260906160049 18 235 6.4 17.7 0.00 0.00 0.00 34 1031.7
20260906154547 17 181 6.4 11.3 0.00 0.00 0.00 39 1031.7
20260906153046 17 157 6.4 16.1 0.00 0.00 0.00 37 1031.6
20260906151542 18 168 6.4 14.5 0.00 0.00 0.00 36 1031.7
20260906150042 17 207 6.4 14.5 0.00 0.00 0.00 38 1031.8
20260906144540 17 197 6.4 16.1 0.00 0.00 0.00 39 1031.8
20260906143040 16 196 3.2 14.5 0.00 0.00 0.00 39 1031.8
20260906141541 16 204 1.6 6.4 0.00 0.00 0.00 40 1032.0
20260906140039 15 248 1.6 3.2 0.00 0.00 0.00 40 1032.0
20260906134536 14 271 0.0 3.2 0.00 0.00 0.00 41 1031.8
20260906133037 12 299 1.6 6.4 0.00 0.00 0.00 47 1031.8
20260906132530 11 322 3.2 6.4 0.00 0.00 0.00 48 1031.7
20260906131028 9 317 4.8 6.4 0.00 0.00 0.00 53 1031.6
20260906125529 8 321 4.8 6.4 0.00 0.00 0.00 54 1031.4
20260906124026 8 355 4.8 6.4 0.00 0.00 0.00 50 1031.3
20260906122527 9 318 4.8 6.4 0.00 0.00 0.00 47 1031.2
20260906115523 10 316 4.8 8.0 0.00 0.00 0.00 45 1031.2
20260906114025 10 310 4.8 6.4 0.00 0.00 0.00 44 1030.9
20260906112524 10 317 3.2 8.0 0.00 0.00 0.00 43 1030.9
20260906111024 10 318 4.8 6.4 0.00 0.00 0.00 44 1030.9
20260906105523 10 323 4.8 6.4 0.00 0.00 0.00 44 1030.8
20260906102524 9 318 4.8 8.0 0.00 0.00 0.00 47 1031.0
20260906101023 10 327 3.2 6.4 0.00 0.00 0.00 46 1030.9
20260906095522 10 317 4.8 6.4 0.00 0.00 0.00 46 1030.9
20260906094023 10 313 4.8 6.4 0.00 0.00 0.00 46 1030.9
20260906092521 10 305 4.8 6.4 0.00 0.00 0.00 45 1030.9
20260906082519 11 323 3.2 6.4 0.00 0.00 0.00 46 1031.2
20260906081017 11 281 3.2 6.4 0.00 0.00 0.00 48 1031.2
20260906075518 11 299 3.2 4.8 0.00 0.00 0.00 50 1031.3
20260906074019 11 326 3.2 8.0 0.00 0.00 0.00 51 1031.4
20260906072515 11 335 3.2 6.4 0.00 0.00 0.00 48 1031.4
20260906071010 12 355 3.2 6.4 0.00 0.00 0.00 44 1031.6
20260906065509 12 315 3.2 6.4 0.00 0.00 0.00 43 1031.6
20260906062509 12 315 3.2 6.4 0.00 0.00 0.00 44 1031.6
20260906055510 12 333 3.2 4.8 0.00 0.00 0.00 44 1031.4
20260906054010 12 319 3.2 6.4 0.00 0.00 0.00 43 1031.6
20260906052509 12 319 3.2 6.4 0.00 0.00 0.00 43 1031.7
20260906051008 12 324 3.2 6.4 0.00 0.00 0.00 42 1031.6
20260906045506 12 297 3.2 6.4 0.00 0.00 0.00 41 1031.6
20260906042505 12 320 3.2 4.8 0.00 0.00 0.00 40 1031.8
20260906041006 12 328 3.2 6.4 0.00 0.00 0.00 42 1031.7
20260906035504 12 329 3.2 6.4 0.00 0.00 0.00 41 1031.6
20260906034004 13 331 3.2 8.0 0.00 0.00 0.00 39 1031.6
20260906032504 13 324 4.8 8.0 0.00 0.00 0.00 39 1031.4
20260906031004 13 309 6.4 9.7 0.00 0.00 0.00 40 1031.3
20260906025504 14 339 4.8 12.9 0.00 0.00 0.00 39 1031.0
20260906024005 14 340 4.8 6.4 0.00 0.00 0.00 40 1030.9
20260906022504 14 342 3.2 8.0 0.00 0.00 0.00 39 1030.6
20260906015501 16 304 4.8 9.7 0.00 0.00 0.00 38 1030.4
20260906014001 16 315 4.8 12.9 0.00 0.00 0.00 36 1030.4
20260906012501 17 325 3.2 12.9 0.00 0.00 0.00 35 1030.4
20260906011001 17 273 3.2 12.9 0.00 0.00 0.00 35 1030.4
20260906005501 18 40 3.2 14.5 0.00 0.00 0.00 34 1030.4
20260906004001 20 308 6.4 14.5 0.00 0.00 0.00 32 1030.2
20260906002501 20 260 4.8 17.7 0.00 0.00 0.00 32 1030.2
20260906001000 21 248 6.4 17.7 0.00 0.00 0.00 32 1030.1
20260905235501 20 16 4.8 16.1 0.00 0.00 0.00 34 1030.1
20260905234001 21 337 6.4 17.7 0.00 0.00 0.00 35 1030.0